SCP
0 0 0 0 0 0 0 0 0 0 0 0 0 0 0 0 0 0 0 0 0 0 0 0 0 0 0 1 1 1 1 0 1 1 0 0 0 0 1 1 1 1 1
1 0 0 0 0 0 0 0 1 1 1 1 1 1 1 1 0 0 0 0 0 0 0 0 0 0 1 1 1 1 1 0 0 0 1 1 1 1 1 1 1 1 1
1 1 1 1 0 1 1 1 0 1 1 1 1 1 1 1 1 1 0 0 0 0 0 0 0 0 0 1 1 1 1 1 1 1 1 1 1 1 1 1 1 1 1
1 1 1 1 1 1 1 1 1 1 1 1 1 1 1 1 1 1 1 1 0 0 0 0 0 0 0 1 1 1 1 1 1 1 1 1 1 1 1 1 1 1 1
1 2 2 2 2 1 1 2 2 2 2 2 2 2 1 1 1 1 1 1 1 0 0 0 0 0 0 1 2 2 2 2 2 1 1 1 1 1 1 1 1 1 1
1 1 1 2 2 1 1 2 2 2 2 1 1 1 1 1 1 1 1 1 1 1 1 1 1 1 1 1 2 2 2 2 2 2 1 1 1 1 1 1 1 1 1
1 2 1 1 1 1 1 1 1 1 1 1 0 0 0 0 1 1 1 1 1 1 1 1 1 1 1 1 1 2 3 2 2 2 2 1 1 1 1 1 1 1 1
1 1 1 0 0 0 0 0 0 0 0 0 0 0 0 0 0 0 0 1 1 1 1 1 1 1 1 1 1 2 3 3 2 2 2 1 1 1 1 1 1 1 1
0 0 0 0 0 0 0 0 0 0 0 0 0 0 0 0 0 0 0 0 1 1 1 1 1 1 2 1 1 2 2 3 3 3 2 2 1 1 1 1 1 1 1
0 0 0 0 0 0 0 0 0 0 0 0 0 0 0 0 0 0 0 0 0 1 1 1 1 2 2 2 2 2 2 2 3 4 3 2 1 1 1 1 1 0 0
0 0 0 0 0 0 0 0 0 0 0 0 0 0 0 0 0 0 0 0 0 0 0 0 1 1 3 2 3 2 2 1 2 3 3 3 2 1 2 2 1 0 0
0 0 0 0 0 0 0 0 0 0 1 0 0 0 0 0 0 0 0 0 0 0 0 0 0 0 1 1 2 2 2 1 1 1 2 2 2 1 1 1 1 1 0
0 0 0 0 0 0 0 0 0 1 1 1 2 0 0 0 0 0 0 0 0 0 0 0 0 0 0 1 1 1 1 1 0 0 1 1 1 0 0 1 1 1 0
0 0 0 0 0 0 0 0 0 0 1 1 1 1 0 0 0 0 0 0 0 0 0 1 0 0 0 1 1 1 1 0 0 0 0 0 0 0 0 0 0 0 0
0 0 0 0 0 0 0 0 0 0 0 0 0 0 0 0 0 0 0 0 0 0 0 0 0 1 0 0 1 1 0 0 0 0 0 0 0 0 0 0 0 0 0
0 0 0 0 0 0 0 0 0 0 0 0 0 0 0 0 0 0 0 0 0 0 0 0 0 0 0 0 0 0 0 0 0 0 0 0 0 0 0 0 0 0 0
0 0 0 0 0 0 0 0 0 0 0 0 0 0 0 0 0 0 0 0 0 0 0 0 0 0 1 1 0 0 0 0 0 0 0 0 0 0 0 0 0 0 0
0 0 0 0 0 0 0 0 0 0 0 0 0 0 0 0 0 0 0 0 0 0 0 0 0 0 1 1 1 0 0 -0 0 0 0 0 0 0 0 0 0 0 0
0 0 0 0 0 0 0 0 0 0 0 0 0 0 0 0 0 0 0 0 0 0 0 0 0 0 0 0 1 0 -0 -0 0 0 0 0 0 0 0 0 0 0 0
0 0 0 0 0 0 0 0 0 0 0 0 0 0 0 0 0 0 0 0 0 0 0 0 0 0 0 0 0 0 0 -0 0 0 0 0 0 0 0 0 0 0 0
0 0 0 0 0 0 0 0 0 0 0 0 0 0 0 0 0 0 0 0 0 0 0 0 0 0 0 0 0 0 0 0 0 0 0 0 0 0 0 0 0 0 0
0 0 0 0 0 0 0 0 0 0 0 0 0 0 0 0 0 0 0 0 0 0 0 0 0 0 0 0 0 1 0 0 0 1 0 0 0 0 0 0 0 0 0
0 0 0 0 0 0 0 0 0 0 0 0 0 0 0 0 0 0 0 0 0 0 0 0 0 0 0 0 0 0 0 0 0 1 0 0 0 0 0 0 0 0 0
0 0 0 0 0 0 0 0 0 0 0 0 0 0 0 0 0 0 0 0 0 0 0 0 0 0 0 0 0 0 1 0 2 2 0 0 0 0 0 0 0 0 0
0 0 0 0 0 0 0 0 0 0 0 0 0 0 0 0 0 0 0 0 0 0 0 0 0 0 0 0 0 1 1 1 1 1 0 0 0 0 0 0 0 0 0
0 0 0 0 0 0 0 0 0 0 0 0 0 0 0 0 0 -0 0 0 0 0 0 0 0 0 0 0 0 0 0 0 0 1 0 0 0 0 0 0 0 0 0
Wind_Speed_500mb
26 25 26 26 25 24 24 24 25 27 28 30 33 33 34 36 39 40 41 53 51 48 49 49 47 45 46 47 44 42 41 39 37 40 36 38 37 37 38 37 37 34 34
29 26 27 27 27 27 27 29 31 32 33 35 36 38 44 43 47 51 48 47 60 57 56 55 54 54 53 52 52 50 48 45 43 47 40 40 42 42 45 44 42 41 40
31 32 26 26 26 25 31 31 34 35 38 39 41 41 41 47 49 55 63 61 54 64 67 62 61 58 61 62 59 55 53 53 50 48 40 41 42 43 47 51 49 47 44
26 26 25 23 22 24 26 27 28 31 33 36 38 40 41 42 45 49 57 61 63 58 58 72 70 61 62 64 64 64 62 58 54 53 45 46 44 45 47 51 52 52 46
27 27 27 25 28 23 26 29 32 33 36 37 40 44 44 47 46 46 49 52 55 66 65 61 79 69 66 70 67 64 65 66 60 58 52 51 51 50 49 50 53 53 48
31 28 25 29 31 31 30 33 36 32 38 39 42 45 48 51 53 53 54 54 55 59 61 71 71 67 72 73 72 62 63 62 65 61 58 53 57 52 50 51 54 52 52
22 26 21 23 23 24 25 27 30 34 37 37 43 49 50 49 49 53 55 53 54 55 55 57 65 63 61 69 72 68 64 62 59 62 56 51 51 48 51 53 53 52 53
17 16 18 20 23 23 28 28 30 35 41 41 46 51 57 59 53 53 53 48 48 47 47 51 53 55 60 57 61 67 63 57 55 59 56 51 49 46 51 53 53 52 53
21 24 28 28 27 30 28 31 30 31 39 41 43 49 55 59 58 53 53 54 50 51 51 49 50 51 53 55 59 61 66 59 55 55 57 56 53 48 50 53 50 53 54
25 26 29 29 33 30 35 35 32 33 35 43 42 43 50 54 60 67 61 58 53 51 52 54 56 54 53 51 51 60 67 62 58 59 57 54 52 48 48 50 49 50 55
29 32 36 41 44 45 41 48 54 47 44 49 50 50 51 52 52 60 70 63 58 59 60 60 62 57 57 55 48 53 57 60 61 56 56 52 52 47 45 52 49 48 54
32 39 46 53 58 61 61 56 54 57 61 64 60 59 59 60 59 61 68 68 66 64 61 60 63 61 54 54 54 60 58 47 45 58 59 61 51 47 44 55 50 48 52
39 43 59 65 68 72 75 76 72 69 70 71 72 70 67 67 65 65 67 73 73 69 67 65 62 61 61 61 60 64 68 73 72 59 61 70 60 50 47 54 51 49 49
61 68 74 78 81 83 81 84 82 69 72 77 82 81 83 79 74 72 71 70 74 74 70 68 62 63 63 59 62 61 62 64 69 76 58 58 61 49 50 51 51 48 44
66 67 73 79 82 83 82 81 74 73 75 80 83 88 86 86 84 80 77 73 72 74 75 67 64 58 58 60 57 53 55 50 65 70 71 64 66 56 45 53 49 45 42
69 72 73 73 73 69 63 58 55 56 65 72 78 84 89 86 84 83 82 81 76 75 82 71 69 63 60 57 53 53 55 51 53 64 55 64 61 54 44 52 45 40 35
65 64 60 54 51 49 49 51 54 58 62 65 68 79 87 85 88 86 85 81 79 76 80 75 66 63 64 59 57 48 43 40 43 55 83 49 58 54 49 48 41 36 32
55 50 48 47 44 45 47 49 52 53 57 62 65 68 75 75 86 90 91 90 85 78 76 77 72 67 67 59 54 52 53 52 50 51 47 72 60 56 49 47 33 33 28
53 49 45 43 43 46 48 51 55 58 60 62 62 64 68 73 84 84 84 84 79 76 75 76 74 67 61 61 56 48 42 46 44 49 48 67 75 60 49 40 30 30 22
41 39 37 40 44 50 55 58 61 65 67 63 68 71 68 66 77 80 85 84 82 80 75 75 72 66 65 57 57 62 58 49 47 54 51 58 65 60 46 35 30 25 21
34 35 40 45 51 56 58 63 66 68 72 76 74 71 73 77 81 84 80 78 73 75 70 70 69 67 69 62 54 56 53 48 49 47 60 68 65 49 44 37 29 24 22
35 39 44 50 56 61 60 65 71 83 86 81 78 72 65 71 69 87 80 86 80 80 81 81 78 73 73 64 60 59 54 48 43 38 36 34 38 34 41 31 30 26 26
41 46 54 53 57 64 71 71 75 72 75 80 79 73 68 68 68 61 70 75 71 76 86 90 92 77 64 62 61 59 62 54 52 43 39 40 41 35 37 33 27 26 23
45 52 51 48 61 66 73 72 72 80 79 83 78 70 69 72 67 60 59 64 63 70 72 75 85 93 82 64 59 58 59 54 48 48 45 34 45 36 40 34 30 25 20
51 52 50 58 72 72 63 70 67 62 66 70 64 63 70 67 62 58 58 60 72 76 65 58 61 66 89 69 64 56 62 60 48 56 62 40 53 48 38 33 28 29 29
53 65 63 69 64 67 58 54 54 56 64 63 57 62 59 57 57 49 56 64 75 65 61 75 62 59 66 76 80 75 66 71 58 53 75 47 61 60 35 37 36 35 33
Wind_Direction_500mb
225 231 233 236 238 244 251 256 255 260 264 269 269 268 269 269 271 272 273 278 281 274 272 272 273 268 267 265 263 267 269 272 273 271 273 273 270 268 271 271 273 272 272
232 235 244 247 248 250 254 258 262 262 267 267 268 271 273 270 270 271 271 272 276 272 268 266 268 266 265 263 262 263 267 268 269 272 274 275 276 271 269 270 270 270 270
247 247 242 246 246 249 257 267 270 269 271 269 272 272 273 275 272 270 269 271 271 274 270 269 265 265 266 264 261 262 266 266 264 268 271 274 277 277 273 270 269 269 268
236 246 238 240 246 248 253 260 265 268 268 269 272 276 275 274 274 274 277 274 270 267 268 270 267 266 268 267 267 266 266 266 259 263 268 271 276 278 277 273 269 269 265
229 236 241 243 252 257 257 258 259 261 268 272 274 276 277 278 277 275 269 268 269 270 265 263 270 266 263 265 263 265 268 263 260 263 267 270 277 277 277 279 272 268 260
235 239 246 254 263 271 274 268 272 272 275 276 274 273 273 271 271 270 272 273 270 268 267 270 265 266 261 259 260 261 264 263 260 263 265 269 275 272 275 279 275 267 262
237 244 248 257 260 261 259 259 269 278 281 277 281 279 280 280 275 274 274 270 268 267 265 263 267 264 260 267 258 255 258 262 264 261 262 267 270 270 276 280 275 267 265
229 232 239 250 256 262 270 272 273 277 278 278 276 279 282 280 273 275 276 269 274 271 268 267 264 261 261 254 261 258 252 255 260 262 261 262 266 272 277 277 273 266 267
257 262 268 272 265 280 276 274 280 278 283 279 273 274 282 278 285 275 270 271 274 274 273 268 267 262 264 262 250 255 255 248 248 257 262 265 266 271 277 273 268 266 274
267 275 276 272 277 272 267 274 278 273 275 278 280 275 272 276 280 286 276 275 274 268 270 272 268 262 262 258 255 244 250 249 238 243 254 266 263 265 272 268 266 271 279
267 269 273 274 274 274 274 272 275 270 271 273 277 279 278 277 277 278 283 281 276 271 271 270 269 266 260 261 252 253 248 246 242 241 241 256 263 260 269 267 269 277 284
272 274 273 274 276 277 276 276 274 271 268 267 268 269 273 276 278 279 281 281 280 276 273 269 266 265 264 258 259 248 253 237 236 240 244 256 256 258 264 268 271 280 286
279 280 281 282 281 281 280 277 274 271 267 264 262 265 267 268 271 273 276 281 280 279 273 268 269 266 262 261 258 256 255 254 260 257 252 246 245 251 258 266 272 278 283
283 283 283 285 283 280 276 274 272 269 267 265 263 259 259 262 266 268 272 278 282 279 276 272 271 264 262 263 257 258 258 254 257 263 256 245 237 242 254 263 269 276 275
282 284 282 283 282 282 280 276 273 270 266 263 263 263 260 260 261 263 265 269 274 279 276 274 270 266 265 263 263 263 259 258 261 261 260 247 238 231 242 257 265 268 273
284 283 283 284 284 283 280 277 276 274 270 268 264 262 261 260 258 259 261 264 267 271 276 272 270 268 266 263 262 269 265 262 270 250 249 242 229 231 241 251 257 260 268
289 288 287 283 281 278 280 281 281 279 275 272 267 262 260 260 259 258 257 258 262 265 272 276 271 263 264 266 262 266 267 273 276 275 243 245 238 230 238 244 247 254 261
289 284 286 282 282 284 282 282 282 279 279 276 272 268 264 262 260 260 256 254 255 260 267 273 272 265 258 256 263 270 271 268 268 266 262 238 244 230 233 240 241 249 255
291 287 282 283 282 282 284 284 283 284 283 279 275 272 269 263 259 258 255 253 254 255 260 265 267 265 263 251 257 266 274 274 259 261 254 228 227 224 230 235 232 243 246
286 283 282 283 284 286 286 285 282 280 279 279 278 274 267 265 261 257 259 257 254 252 259 265 266 263 256 258 252 256 269 267 248 246 232 213 215 215 222 221 228 230 234
286 285 288 289 288 286 287 284 278 276 274 275 275 276 270 266 256 249 256 258 256 255 256 261 265 263 254 247 251 255 253 250 249 242 219 210 209 210 209 210 219 225 228
290 290 290 290 292 293 292 291 281 283 276 273 271 276 275 263 262 255 248 251 253 258 259 261 267 257 252 246 250 250 243 234 224 216 200 189 183 187 203 209 218 222 228
294 293 298 306 306 300 292 289 286 283 278 277 273 272 274 270 261 259 251 254 251 253 255 259 258 253 247 244 242 242 238 229 219 202 193 202 183 193 204 209 203 211 212
294 301 308 293 297 298 299 295 291 286 278 276 274 275 270 267 258 251 253 253 253 255 259 252 250 246 240 241 234 236 236 233 221 208 199 192 173 189 188 189 193 195 192
307 305 293 294 306 307 299 291 294 286 283 278 274 269 267 263 262 254 257 259 262 262 256 265 253 251 239 230 237 242 235 224 213 205 195 182 179 175 175 176 182 174 171
306 309 308 308 311 305 298 301 298 290 286 280 275 275 267 263 252 253 259 268 263 257 252 262 262 242 239 233 232 236 224 213 207 193 180 176 182 174 159 174 184 188 185
Wind_Speed_850mb
26 25 26 26 25 24 24 24 25 27 28 30 33 33 34 36 39 40 41 53 51 48 49 49 47 45 46 47 44 42 41 39 37 40 36 38 37 37 38 37 37 34 34
29 26 27 27 27 27 27 29 31 32 33 35 36 38 44 43 47 51 48 47 60 57 56 55 54 54 53 52 52 50 48 45 43 47 40 40 42 42 45 44 42 41 40
31 32 26 26 26 25 31 31 34 35 38 39 41 41 41 47 49 55 63 61 54 64 67 62 61 58 61 62 59 55 53 53 50 48 40 41 42 43 47 51 49 47 44
26 26 25 23 22 24 26 27 28 31 33 36 38 40 41 42 45 49 57 61 63 58 58 72 70 61 62 64 64 64 62 58 54 53 45 46 44 45 47 51 52 52 46
27 27 27 25 28 23 26 29 32 33 36 37 40 44 44 47 46 46 49 52 55 66 65 61 79 69 66 70 67 64 65 66 60 58 52 51 51 50 49 50 53 53 48
31 28 25 29 31 31 30 33 36 32 38 39 42 45 48 51 53 53 54 54 55 59 61 71 71 67 72 73 72 62 63 62 65 61 58 53 57 52 50 51 54 52 52
22 26 21 23 23 24 25 27 30 34 37 37 43 49 50 49 49 53 55 53 54 55 55 57 65 63 61 69 72 68 64 62 59 62 56 51 51 48 51 53 53 52 53
17 16 18 20 23 23 28 28 30 35 41 41 46 51 57 59 53 53 53 48 48 47 47 51 53 55 60 57 61 67 63 57 55 59 56 51 49 46 51 53 53 52 53
21 24 28 28 27 30 28 31 30 31 39 41 43 49 55 59 58 53 53 54 50 51 51 49 50 51 53 55 59 61 66 59 55 55 57 56 53 48 50 53 50 53 54
25 26 29 29 33 30 35 35 32 33 35 43 42 43 50 54 60 67 61 58 53 51 52 54 56 54 53 51 51 60 67 62 58 59 57 54 52 48 48 50 49 50 55
29 32 36 41 44 45 41 48 54 47 44 49 50 50 51 52 52 60 70 63 58 59 60 60 62 57 57 55 48 53 57 60 61 56 56 52 52 47 45 52 49 48 54
32 39 46 53 58 61 61 56 54 57 61 64 60 59 59 60 59 61 68 68 66 64 61 60 63 61 54 54 54 60 58 47 45 58 59 61 51 47 44 55 50 48 52
39 43 59 65 68 72 75 76 72 69 70 71 72 70 67 67 65 65 67 73 73 69 67 65 62 61 61 61 60 64 68 73 72 59 61 70 60 50 47 54 51 49 49
61 68 74 78 81 83 81 84 82 69 72 77 82 81 83 79 74 72 71 70 74 74 70 68 62 63 63 59 62 61 62 64 69 76 58 58 61 49 50 51 51 48 44
66 67 73 79 82 83 82 81 74 73 75 80 83 88 86 86 84 80 77 73 72 74 75 67 64 58 58 60 57 53 55 50 65 70 71 64 66 56 45 53 49 45 42
69 72 73 73 73 69 63 58 55 56 65 72 78 84 89 86 84 83 82 81 76 75 82 71 69 63 60 57 53 53 55 51 53 64 55 64 61 54 44 52 45 40 35
65 64 60 54 51 49 49 51 54 58 62 65 68 79 87 85 88 86 85 81 79 76 80 75 66 63 64 59 57 48 43 40 43 55 83 49 58 54 49 48 41 36 32
55 50 48 47 44 45 47 49 52 53 57 62 65 68 75 75 86 90 91 90 85 78 76 77 72 67 67 59 54 52 53 52 50 51 47 72 60 56 49 47 33 33 28
53 49 45 43 43 46 48 51 55 58 60 62 62 64 68 73 84 84 84 84 79 76 75 76 74 67 61 61 56 48 42 46 44 49 48 67 75 60 49 40 30 30 22
41 39 37 40 44 50 55 58 61 65 67 63 68 71 68 66 77 80 85 84 82 80 75 75 72 66 65 57 57 62 58 49 47 54 51 58 65 60 46 35 30 25 21
34 35 40 45 51 56 58 63 66 68 72 76 74 71 73 77 81 84 80 78 73 75 70 70 69 67 69 62 54 56 53 48 49 47 60 68 65 49 44 37 29 24 22
35 39 44 50 56 61 60 65 71 83 86 81 78 72 65 71 69 87 80 86 80 80 81 81 78 73 73 64 60 59 54 48 43 38 36 34 38 34 41 31 30 26 26
41 46 54 53 57 64 71 71 75 72 75 80 79 73 68 68 68 61 70 75 71 76 86 90 92 77 64 62 61 59 62 54 52 43 39 40 41 35 37 33 27 26 23
45 52 51 48 61 66 73 72 72 80 79 83 78 70 69 72 67 60 59 64 63 70 72 75 85 93 82 64 59 58 59 54 48 48 45 34 45 36 40 34 30 25 20
51 52 50 58 72 72 63 70 67 62 66 70 64 63 70 67 62 58 58 60 72 76 65 58 61 66 89 69 64 56 62 60 48 56 62 40 53 48 38 33 28 29 29
53 65 63 69 64 67 58 54 54 56 64 63 57 62 59 57 57 49 56 64 75 65 61 75 62 59 66 76 80 75 66 71 58 53 75 47 61 60 35 37 36 35 33
Wind_Direction_850mb
225 231 233 236 238 244 251 256 255 260 264 269 269 268 269 269 271 272 273 278 281 274 272 272 273 268 267 265 263 267 269 272 273 271 273 273 270 268 271 271 273 272 272
232 235 244 247 248 250 254 258 262 262 267 267 268 271 273 270 270 271 271 272 276 272 268 266 268 266 265 263 262 263 267 268 269 272 274 275 276 271 269 270 270 270 270
247 247 242 246 246 249 257 267 270 269 271 269 272 272 273 275 272 270 269 271 271 274 270 269 265 265 266 264 261 262 266 266 264 268 271 274 277 277 273 270 269 269 268
236 246 238 240 246 248 253 260 265 268 268 269 272 276 275 274 274 274 277 274 270 267 268 270 267 266 268 267 267 266 266 266 259 263 268 271 276 278 277 273 269 269 265
229 236 241 243 252 257 257 258 259 261 268 272 274 276 277 278 277 275 269 268 269 270 265 263 270 266 263 265 263 265 268 263 260 263 267 270 277 277 277 279 272 268 260
235 239 246 254 263 271 274 268 272 272 275 276 274 273 273 271 271 270 272 273 270 268 267 270 265 266 261 259 260 261 264 263 260 263 265 269 275 272 275 279 275 267 262
237 244 248 257 260 261 259 259 269 278 281 277 281 279 280 280 275 274 274 270 268 267 265 263 267 264 260 267 258 255 258 262 264 261 262 267 270 270 276 280 275 267 265
229 232 239 250 256 262 270 272 273 277 278 278 276 279 282 280 273 275 276 269 274 271 268 267 264 261 261 254 261 258 252 255 260 262 261 262 266 272 277 277 273 266 267
257 262 268 272 265 280 276 274 280 278 283 279 273 274 282 278 285 275 270 271 274 274 273 268 267 262 264 262 250 255 255 248 248 257 262 265 266 271 277 273 268 266 274
267 275 276 272 277 272 267 274 278 273 275 278 280 275 272 276 280 286 276 275 274 268 270 272 268 262 262 258 255 244 250 249 238 243 254 266 263 265 272 268 266 271 279
267 269 273 274 274 274 274 272 275 270 271 273 277 279 278 277 277 278 283 281 276 271 271 270 269 266 260 261 252 253 248 246 242 241 241 256 263 260 269 267 269 277 284
272 274 273 274 276 277 276 276 274 271 268 267 268 269 273 276 278 279 281 281 280 276 273 269 266 265 264 258 259 248 253 237 236 240 244 256 256 258 264 268 271 280 286
279 280 281 282 281 281 280 277 274 271 267 264 262 265 267 268 271 273 276 281 280 279 273 268 269 266 262 261 258 256 255 254 260 257 252 246 245 251 258 266 272 278 283
283 283 283 285 283 280 276 274 272 269 267 265 263 259 259 262 266 268 272 278 282 279 276 272 271 264 262 263 257 258 258 254 257 263 256 245 237 242 254 263 269 276 275
282 284 282 283 282 282 280 276 273 270 266 263 263 263 260 260 261 263 265 269 274 279 276 274 270 266 265 263 263 263 259 258 261 261 260 247 238 231 242 257 265 268 273
284 283 283 284 284 283 280 277 276 274 270 268 264 262 261 260 258 259 261 264 267 271 276 272 270 268 266 263 262 269 265 262 270 250 249 242 229 231 241 251 257 260 268
289 288 287 283 281 278 280 281 281 279 275 272 267 262 260 260 259 258 257 258 262 265 272 276 271 263 264 266 262 266 267 273 276 275 243 245 238 230 238 244 247 254 261
289 284 286 282 282 284 282 282 282 279 279 276 272 268 264 262 260 260 256 254 255 260 267 273 272 265 258 256 263 270 271 268 268 266 262 238 244 230 233 240 241 249 255
291 287 282 283 282 282 284 284 283 284 283 279 275 272 269 263 259 258 255 253 254 255 260 265 267 265 263 251 257 266 274 274 259 261 254 228 227 224 230 235 232 243 246
286 283 282 283 284 286 286 285 282 280 279 279 278 274 267 265 261 257 259 257 254 252 259 265 266 263 256 258 252 256 269 267 248 246 232 213 215 215 222 221 228 230 234
286 285 288 289 288 286 287 284 278 276 274 275 275 276 270 266 256 249 256 258 256 255 256 261 265 263 254 247 251 255 253 250 249 242 219 210 209 210 209 210 219 225 228
290 290 290 290 292 293 292 291 281 283 276 273 271 276 275 263 262 255 248 251 253 258 259 261 267 257 252 246 250 250 243 234 224 216 200 189 183 187 203 209 218 222 228
294 293 298 306 306 300 292 289 286 283 278 277 273 272 274 270 261 259 251 254 251 253 255 259 258 253 247 244 242 242 238 229 219 202 193 202 183 193 204 209 203 211 212
294 301 308 293 297 298 299 295 291 286 278 276 274 275 270 267 258 251 253 253 253 255 259 252 250 246 240 241 234 236 236 233 221 208 199 192 173 189 188 189 193 195 192
307 305 293 294 306 307 299 291 294 286 283 278 274 269 267 263 262 254 257 259 262 262 256 265 253 251 239 230 237 242 235 224 213 205 195 182 179 175 175 176 182 174 171
306 309 308 308 311 305 298 301 298 290 286 280 275 275 267 263 252 253 259 268 263 257 252 262 262 242 239 233 232 236 224 213 207 193 180 176 182 174 159 174 184 188 185